Meteo pe oră la Abbakumovo

Astăzi, 3 August, Marţi

Timp Temperatura Precipitaţii Vânt Presiune Umiditate
00:00 +15°C° 0 mm 6 m/s 731 mmHg 94%
01:00 +15°C° 0 mm 5 m/s 732 mmHg 92%
02:00 +14°C° 0 mm 5 m/s 732 mmHg 91%
03:00 +14°C° 0 mm 5 m/s 733 mmHg 90%
04:00 +14°C° 0 mm 4 m/s 733 mmHg 88%
05:00 +14°C° 0 mm 4 m/s 734 mmHg 87%
06:00 +14°C° 0 mm 4 m/s 734 mmHg 83%
07:00 +15°C° 0 mm 4 m/s 735 mmHg 79%
08:00 +15°C° 0 mm 4 m/s 735 mmHg 76%
09:00 +17°C° 0 mm 4 m/s 735 mmHg 69%
10:00 +19°C° 0 mm 5 m/s 736 mmHg 62%
11:00 +20°C° 0 mm 5 m/s 736 mmHg 55%
12:00 +20°C° 0.2 mm 5 m/s 736 mmHg 58%
13:00 +20°C° 0.2 mm 5 m/s 736 mmHg 61%
14:00 +20°C° 0.2 mm 5 m/s 736 mmHg 63%
15:00 +20°C° 0.2 mm 4 m/s 736 mmHg 62%
16:00 +20°C° 0.2 mm 4 m/s 736 mmHg 61%
17:00 +20°C° 0.2 mm 3 m/s 736 mmHg 60%
18:00 +18°C° 0 mm 3 m/s 737 mmHg 65%
19:00 +17°C° 0 mm 2 m/s 737 mmHg 70%
20:00 +15°C° 0 mm 2 m/s 737 mmHg 76%
21:00 +14°C° 0 mm 2 m/s 738 mmHg 80%
22:00 +14°C° 0 mm 2 m/s 738 mmHg 85%
23:00 +13°C° 0 mm 2 m/s 739 mmHg 89%

Mâine, 4 August, Miercuri

Timp Temperatura Precipitaţii Vânt Presiune Umiditate
00:00 +12°C° 0 mm 2 m/s 739 mmHg 91%
01:00 +12°C° 0 mm 2 m/s 739 mmHg 92%
02:00 +11°C° 0 mm 1 m/s 740 mmHg 94%
03:00 +12°C° 0 mm 1 m/s 740 mmHg 91%
04:00 +12°C° 0 mm 1 m/s 740 mmHg 89%
05:00 +12°C° 0 mm 1 m/s 741 mmHg 86%
06:00 +13°C° 0 mm 1 m/s 741 mmHg 82%
07:00 +14°C° 0 mm 1 m/s 741 mmHg 77%
08:00 +16°C° 0 mm 1 m/s 742 mmHg 72%
09:00 +18°C° 0 mm 1 m/s 742 mmHg 67%
10:00 +19°C° 0 mm 1 m/s 742 mmHg 61%
11:00 +20°C° 0 mm 1 m/s 742 mmHg 56%
12:00 +20°C° 0 mm 2 m/s 742 mmHg 50%
13:00 +21°C° 0 mm 2 m/s 742 mmHg 45%
14:00 +23°C° 0 mm 2 m/s 742 mmHg 40%
15:00 +21°C° 0 mm 2 m/s 742 mmHg 46%
16:00 +20°C° 0 mm 2 m/s 742 mmHg 52%
17:00 +20°C° 0 mm 1 m/s 742 mmHg 59%
18:00 +19°C° 0 mm 1 m/s 742 mmHg 60%
19:00 +18°C° 0 mm 1 m/s 742 mmHg 61%
20:00 +16°C° 0 mm 1 m/s 743 mmHg 62%
21:00 +16°C° 0 mm 1 m/s 743 mmHg 63%
22:00 +15°C° 0 mm 1 m/s 743 mmHg 63%
23:00 +15°C° 0 mm 1 m/s 743 mmHg 64%

Poimâine, 5 August, Joi

Timp Temperatura Precipitaţii Vânt Presiune Umiditate
00:00 +15°C° 0 mm 1 m/s 743 mmHg 65%
01:00 +15°C° 0 mm 1 m/s 743 mmHg 66%
02:00 +14°C° 0 mm 1 m/s 743 mmHg 67%
03:00 +14°C° 0 mm 1 m/s 743 mmHg 70%
04:00 +14°C° 0 mm 1 m/s 743 mmHg 73%
05:00 +13°C° 0 mm 1 m/s 743 mmHg 76%
06:00 +15°C° 0 mm 2 m/s 743 mmHg 73%
07:00 +16°C° 0 mm 2 m/s 743 mmHg 69%
08:00 +17°C° 0 mm 2 m/s 743 mmHg 65%
09:00 +18°C° 0.2 mm 2 m/s 743 mmHg 67%
10:00 +18°C° 0.2 mm 2 m/s 742 mmHg 68%
11:00 +19°C° 0.2 mm 2 m/s 742 mmHg 70%
12:00 +18°C° 1 mm 2 m/s 742 mmHg 78%
13:00 +16°C° 1 mm 1 m/s 742 mmHg 86%
14:00 +15°C° 1 mm 1 m/s 742 mmHg 94%
15:00 +15°C° 1.1 mm 1 m/s 742 mmHg 95%
16:00 +14°C° 1.1 mm 2 m/s 742 mmHg 96%
17:00 +14°C° 1.1 mm 2 m/s 742 mmHg 98%
18:00 +14°C° 0.2 mm 2 m/s 742 mmHg 98%
19:00 +14°C° 0.2 mm 2 m/s 741 mmHg 98%
20:00 +14°C° 0.2 mm 2 m/s 741 mmHg 98%
21:00 +14°C° 0 mm 2 m/s 741 mmHg 98%
22:00 +13°C° 0 mm 3 m/s 741 mmHg 98%
23:00 +13°C° 0 mm 3 m/s 741 mmHg 98%

6 August, Vineri

Timp Temperatura Precipitaţii Vânt Presiune Umiditate
00:00 +13°C° 0 mm 3 m/s 741 mmHg 98%
01:00 +13°C° 0 mm 3 m/s 740 mmHg 98%
02:00 +13°C° 0 mm 3 m/s 740 mmHg 98%
03:00 +13°C° 0 mm 3 m/s 740 mmHg 98%
04:00 +13°C° 0 mm 3 m/s 740 mmHg 98%
05:00 +13°C° 0 mm 3 m/s 740 mmHg 98%
06:00 +13°C° 0 mm 3 m/s 740 mmHg 97%
07:00 +13°C° 0 mm 3 m/s 740 mmHg 96%
08:00 +13°C° 0 mm 4 m/s 740 mmHg 95%
09:00 +14°C° 0.4 mm 4 m/s 740 mmHg 95%
10:00 +14°C° 0.4 mm 4 m/s 740 mmHg 95%
11:00 +14°C° 0.4 mm 4 m/s 740 mmHg 95%
12:00 +14°C° 0.4 mm 4 m/s 739 mmHg 96%
13:00 +14°C° 0.4 mm 4 m/s 739 mmHg 97%
14:00 +14°C° 0.4 mm 4 m/s 739 mmHg 98%
15:00 +14°C° 0.1 mm 4 m/s 739 mmHg 97%
16:00 +15°C° 0.1 mm 4 m/s 739 mmHg 97%
17:00 +15°C° 0.1 mm 4 m/s 738 mmHg 97%
18:00 +15°C° 0.3 mm 4 m/s 738 mmHg 97%
19:00 +15°C° 0.3 mm 4 m/s 738 mmHg 98%
20:00 +15°C° 0.3 mm 4 m/s 738 mmHg 98%
21:00 +15°C° 0.3 mm 4 m/s 738 mmHg 98%
22:00 +15°C° 0.3 mm 4 m/s 738 mmHg 98%
23:00 +15°C° 0.3 mm 4 m/s 738 mmHg 98%

7 August, Sâmbătă

Timp Temperatura Precipitaţii Vânt Presiune Umiditate
00:00 +15°C° 0.8 mm 4 m/s 738 mmHg 98%
01:00 +16°C° 0.8 mm 3 m/s 738 mmHg 98%
02:00 +16°C° 0.8 mm 3 m/s 738 mmHg 98%
03:00 +16°C° 0.4 mm 3 m/s 738 mmHg 98%
04:00 +16°C° 0.4 mm 3 m/s 738 mmHg 98%
05:00 +16°C° 0.4 mm 3 m/s 738 mmHg 98%
06:00 +17°C° 0 mm 3 m/s 738 mmHg 96%
07:00 +17°C° 0 mm 3 m/s 738 mmHg 95%
08:00 +17°C° 0 mm 3 m/s 738 mmHg 93%
09:00 +18°C° 0 mm 3 m/s 738 mmHg 88%
10:00 +19°C° 0 mm 3 m/s 738 mmHg 83%
11:00 +20°C° 0 mm 3 m/s 738 mmHg 78%
12:00 +21°C° 0 mm 3 m/s 738 mmHg 77%
13:00 +22°C° 0 mm 3 m/s 738 mmHg 75%
14:00 +22°C° 0 mm 3 m/s 738 mmHg 73%
15:00 +22°C° 0.1 mm 3 m/s 738 mmHg 77%
16:00 +22°C° 0.1 mm 3 m/s 738 mmHg 81%
17:00 +21°C° 0.1 mm 3 m/s 738 mmHg 85%
18:00 +21°C° 1.1 mm 3 m/s 738 mmHg 89%
19:00 +20°C° 1.1 mm 2 m/s 738 mmHg 94%
20:00 +19°C° 1.1 mm 2 m/s 738 mmHg 98%
21:00 +19°C° 1.3 mm 2 m/s 738 mmHg 98%
22:00 +19°C° 1.3 mm 2 m/s 738 mmHg 98%
23:00 +19°C° 1.3 mm 2 m/s 738 mmHg 98%

8 August, Duminică

Timp Temperatura Precipitaţii Vânt Presiune Umiditate
00:00 +19°C° 1.3 mm 2 m/s 738 mmHg 98%
01:00 +18°C° 1.3 mm 2 m/s 738 mmHg 99%
02:00 +19°C° 1.3 mm 1 m/s 738 mmHg 99%
03:00 +19°C° 0.1 mm 1 m/s 738 mmHg 99%
04:00 +19°C° 0.1 mm 1 m/s 738 mmHg 99%
05:00 +19°C° 0.1 mm 1 m/s 738 mmHg 99%
06:00 +19°C° 0.2 mm 1 m/s 739 mmHg 97%
07:00 +20°C° 0.2 mm 1 m/s 739 mmHg 95%
08:00 +19°C° 0.2 mm 2 m/s 739 mmHg 93%
09:00 +22°C° 0.1 mm 1 m/s 740 mmHg 85%
10:00 +23°C° 0.1 mm 1 m/s 740 mmHg 76%
11:00 +24°C° 0.1 mm 1 m/s 740 mmHg 67%
12:00 +24°C° 0 mm 2 m/s 740 mmHg 65%
13:00 +25°C° 0 mm 2 m/s 741 mmHg 62%
14:00 +25°C° 0 mm 2 m/s 741 mmHg 60%
15:00 +25°C° 0 mm 2 m/s 741 mmHg 62%
16:00 +24°C° 0 mm 2 m/s 741 mmHg 64%
17:00 +24°C° 0 mm 2 m/s 742 mmHg 66%
18:00 +21°C° 0 mm 2 m/s 742 mmHg 72%
19:00 +21°C° 0 mm 1 m/s 742 mmHg 79%
20:00 +19°C° 0 mm 1 m/s 742 mmHg 85%
21:00 +19°C° 0 mm 1 m/s 743 mmHg 88%
22:00 +18°C° 0 mm 1 m/s 743 mmHg 91%
23:00 +16°C° 0 mm 1 m/s 743 mmHg 93%
Arată mai mult

Formular de consimțământ

Meteoprog și furnizorii noștri de servicii pot stoca și accesa date personale, precum cookies, identificatori de dispozitiv sau alte tehnologii similare pe dispozitivul dumneavoastră și procesa astfel de date pentru a personaliza conținutul și reclamele, dar și pentru a oferi caracteristici de social media și pentru a analiza traficul.

  • Stocarea și/sau accesarea informațiilor pe dispozitivul dumneavoastră

    Cookies, identificatori de dispozitiv sau alte informații pot fi stocate sau accesate pe dispozitiv în scopurile indicate mai sus.

  • Reclame și conținut personalizat, evaluarea reclamelor și a conținutului, informații despre audiențe și dezvoltarea produselor

    Reclamele și conținutul pot fi personalizate pe baza unui profil. Pot fi adăugate date suplimentare pentru a personaliza mai bine reclamele și conținutul. Performanța reclamelor și conținutului poate fi măsurată. Pot fi obținute informații despre utilizatorii care au văzut reclamele și conținutul. Aceste date pot fi utilizate pentru a dezvolta sau îmbunătăți experiența utilizatorilor, sistemele și software-ul.

Dând clic pe ‘Sunt de acord’, permiteți utilizarea cookie-urilor menționate, a identificatorilor de dispozitiv, balizelor web sau altor tehnologii similare. Setările pot fi modificate din browser-ul dispozitivului dumneavoastră.

În anumite scopuri, interesele legitime pot prima asupra consimțământului. Puteți citi mai multe informații în acest sens în Politica privind Confidențialitatea Datelor și Cookie.